| time (UTC) | temp F | wind direction | speed MPH | gust MPH | rain 1hr in | rain 24hr in | rain mn in | humidity % | barometer mb |
| 20260905234550 | 93 | 115 | 8.0 | 14.0 | 0.00 | 0.00 | 0.00 | 45 | 1010.9 |
| 20260905234033 | 93 | 100 | 9.0 | 13.0 | 0.00 | 0.00 | 0.00 | 45 | 1011.0 |
| 20260905233532 | 93 | 95 | 6.0 | 11.0 | 0.00 | 0.00 | 0.00 | 46 | 1010.9 |
| 20260905233102 | 93 | 89 | 5.0 | 11.0 | 0.00 | 0.00 | 0.00 | 47 | 1011.0 |
| 20260905232532 | 93 | 136 | 7.0 | 17.0 | 0.00 | 0.00 | 0.00 | 46 | 1011.0 |
| 20260905232033 | 93 | 124 | 8.0 | 17.0 | 0.00 | 0.00 | 0.00 | 46 | 1011.0 |
| 20260905231559 | 94 | 94 | 8.0 | 16.0 | 0.00 | 0.00 | 0.00 | 46 | 1011.0 |
| 20260905231032 | 94 | 89 | 8.0 | 15.0 | 0.00 | 0.00 | 0.00 | 46 | 1011.0 |
| 20260905230533 | 94 | 77 | 9.0 | 15.0 | 0.00 | 0.00 | 0.00 | 45 | 1011.0 |
| 20260905230105 | 94 | 129 | 6.0 | 12.0 | 0.00 | 0.00 | 0.00 | 44 | 1010.9 |
| 20260905225533 | 95 | 65 | 3.0 | 12.0 | 0.00 | 0.00 | 0.00 | 45 | 1011.0 |
| 20260905225033 | 94 | 64 | 2.0 | 12.0 | 0.00 | 0.00 | 0.00 | 44 | 1011.1 |
| 20260905224616 | 94 | 106 | 5.0 | 12.0 | 0.00 | 0.00 | 0.00 | 44 | 1011.1 |
| 20260905224033 | 94 | 133 | 5.0 | 13.0 | 0.00 | 0.00 | 0.00 | 42 | 1011.1 |
| 20260905223534 | 95 | 89 | 4.0 | 13.0 | 0.00 | 0.00 | 0.00 | 41 | 1011.0 |
| 20260905223111 | 96 | 135 | 7.0 | 13.0 | 0.00 | 0.00 | 0.00 | 41 | 1010.9 |
| 20260905222533 | 97 | 139 | 7.0 | 13.0 | 0.00 | 0.00 | 0.00 | 39 | 1010.9 |
| 20260905222034 | 97 | 60 | 4.0 | 10.0 | 0.00 | 0.00 | 0.00 | 41 | 1011.0 |
| 20260905221604 | 97 | 147 | 3.0 | 11.0 | 0.00 | 0.00 | 0.00 | 40 | 1011.0 |
| 20260905221032 | 96 | 178 | 6.0 | 12.0 | 0.00 | 0.00 | 0.00 | 40 | 1011.0 |
| 20260905220534 | 95 | 120 | 7.0 | 20.0 | 0.00 | 0.00 | 0.00 | 40 | 1011.0 |
| 20260905220059 | 96 | 119 | 4.0 | 20.0 | 0.00 | 0.00 | 0.00 | 39 | 1010.9 |
| 20260905215533 | 99 | 173 | 6.0 | 20.0 | 0.00 | 0.00 | 0.00 | 37 | 1010.8 |
| 20260905215032 | 100 | 74 | 8.0 | 13.0 | 0.00 | 0.00 | 0.00 | 36 | 1011.0 |
| 20260905214552 | 100 | 110 | 5.0 | 13.0 | 0.00 | 0.00 | 0.00 | 37 | 1011.0 |
| 20260905214033 | 100 | 127 | 6.0 | 13.0 | 0.00 | 0.00 | 0.00 | 37 | 1011.0 |
| 20260905213533 | 101 | 158 | 6.0 | 18.0 | 0.00 | 0.00 | 0.00 | 36 | 1011.1 |
| 20260905213102 | 101 | 149 | 4.0 | 18.0 | 0.00 | 0.00 | 0.00 | 35 | 1011.2 |
| 20260905212536 | 101 | 142 | 6.0 | 15.0 | 0.00 | 0.00 | 0.00 | 36 | 1011.2 |
| 20260905212034 | 100 | 138 | 5.0 | 15.0 | 0.00 | 0.00 | 0.00 | 37 | 1011.2 |
| 20260905211555 | 100 | 155 | 5.0 | 17.0 | 0.00 | 0.00 | 0.00 | 36 | 1011.4 |
| 20260905211033 | 100 | 162 | 9.0 | 17.0 | 0.00 | 0.00 | 0.00 | 37 | 1011.4 |
| 20260905210533 | 100 | 119 | 5.0 | 16.0 | 0.00 | 0.00 | 0.00 | 37 | 1011.4 |
| 20260905210058 | 100 | 216 | 9.0 | 16.0 | 0.00 | 0.00 | 0.00 | 38 | 1011.5 |
| 20260905205533 | 100 | 113 | 4.0 | 12.0 | 0.00 | 0.00 | 0.00 | 38 | 1011.5 |
| 20260905205035 | 100 | 73 | 7.0 | 12.0 | 0.00 | 0.00 | 0.00 | 39 | 1011.7 |
| 20260905204601 | 100 | 115 | 4.0 | 12.0 | 0.00 | 0.00 | 0.00 | 37 | 1011.8 |
| 20260905204036 | 100 | 180 | 6.0 | 14.0 | 0.00 | 0.00 | 0.00 | 37 | 1011.8 |
| 20260905203534 | 100 | 116 | 6.0 | 14.0 | 0.00 | 0.00 | 0.00 | 36 | 1011.9 |
| 20260905203055 | 100 | 168 | 7.0 | 16.0 | 0.00 | 0.00 | 0.00 | 36 | 1012.1 |
| 20260905202532 | 100 | 172 | 7.0 | 16.0 | 0.00 | 0.00 | 0.00 | 37 | 1012.1 |
| 20260905202034 | 100 | 122 | 4.0 | 16.0 | 0.00 | 0.00 | 0.00 | 38 | 1012.1 |
| 20260905201558 | 100 | 33 | 4.0 | 17.0 | 0.00 | 0.00 | 0.00 | 38 | 1012.2 |
| 20260905201033 | 100 | 191 | 8.0 | 17.0 | 0.00 | 0.00 | 0.00 | 40 | 1012.3 |
| 20260905200533 | 100 | 118 | 1.0 | 13.0 | 0.00 | 0.00 | 0.00 | 41 | 1012.4 |
| 20260905200104 | 99 | 158 | 6.0 | 13.0 | 0.00 | 0.00 | 0.00 | 41 | 1012.5 |
| 20260905195535 | 98 | 95 | 7.0 | 13.0 | 0.00 | 0.00 | 0.00 | 41 | 1012.6 |
| 20260905195033 | 98 | 180 | 5.0 | 13.0 | 0.00 | 0.00 | 0.00 | 40 | 1012.7 |
| 20260905194556 | 98 | 170 | 6.0 | 13.0 | 0.00 | 0.00 | 0.00 | 41 | 1012.8 |
| 20260905194035 | 97 | 130 | 6.0 | 13.0 | 0.00 | 0.00 | 0.00 | 45 | 1012.9 |
| 20260905193534 | 97 | 359 | 3.0 | 11.0 | 0.00 | 0.00 | 0.00 | 44 | 1012.9 |
| 20260905193057 | 97 | 155 | 5.0 | 11.0 | 0.00 | 0.00 | 0.00 | 45 | 1013.1 |
| 20260905192533 | 96 | 91 | 5.0 | 11.0 | 0.00 | 0.00 | 0.00 | 47 | 1013.2 |
| 20260905192034 | 95 | 168 | 6.0 | 14.0 | 0.00 | 0.00 | 0.00 | 50 | 1013.2 |
| 20260905191605 | 94 | 122 | 5.0 | 14.0 | 0.00 | 0.00 | 0.00 | 53 | 1013.4 |
| 20260905191033 | 94 | 72 | 8.0 | 14.0 | 0.00 | 0.00 | 0.00 | 51 | 1013.5 |
| 20260905190533 | 94 | 80 | 4.0 | 13.0 | 0.00 | 0.00 | 0.00 | 53 | 1013.6 |
| 20260905190059 | 94 | 105 | 5.0 | 13.0 | 0.00 | 0.00 | 0.00 | 54 | 1013.7 |
| 20260905185535 | 95 | 116 | 8.0 | 14.0 | 0.00 | 0.00 | 0.00 | 53 | 1013.8 |
| 20260905185033 | 95 | 93 | 8.0 | 14.0 | 0.00 | 0.00 | 0.00 | 54 | 1013.9 |
| 20260905184559 | 94 | 129 | 7.0 | 12.0 | 0.00 | 0.00 | 0.00 | 56 | 1013.9 |
| 20260905184033 | 93 | 120 | 6.0 | 14.0 | 0.00 | 0.00 | 0.00 | 57 | 1014.0 |
| 20260905183533 | 92 | 106 | 8.0 | 15.0 | 0.00 | 0.00 | 0.00 | 59 | 1014.0 |
| 20260905183101 | 93 | 102 | 8.0 | 15.0 | 0.00 | 0.00 | 0.00 | 57 | 1014.1 |
| 20260905182532 | 93 | 132 | 4.0 | 16.0 | 0.00 | 0.00 | 0.00 | 57 | 1014.2 |
| 20260905182033 | 94 | 116 | 8.0 | 16.0 | 0.00 | 0.00 | 0.00 | 57 | 1014.2 |
| 20260905181558 | 93 | 107 | 4.0 | 11.0 | 0.00 | 0.00 | 0.00 | 58 | 1014.2 |
| 20260905181033 | 92 | 164 | 3.0 | 9.0 | 0.00 | 0.00 | 0.00 | 61 | 1014.4 |
| 20260905180534 | 91 | 81 | 4.0 | 10.0 | 0.00 | 0.00 | 0.00 | 62 | 1014.6 |
| 20260905180104 | 90 | 123 | 5.0 | 10.0 | 0.00 | 0.00 | 0.00 | 62 | 1014.7 |
| 20260905175535 | 89 | 191 | 3.0 | 8.0 | 0.00 | 0.00 | 0.00 | 63 | 1014.8 |
| 20260905175033 | 88 | 169 | 4.0 | 10.0 | 0.00 | 0.00 | 0.00 | 68 | 1014.9 |
| 20260905174600 | 86 | 129 | 4.0 | 11.0 | 0.00 | 0.00 | 0.00 | 70 | 1015.0 |
| 20260905174033 | 86 | 112 | 6.0 | 12.0 | 0.00 | 0.00 | 0.00 | 72 | 1015.0 |
| 20260905173534 | 86 | 106 | 7.0 | 14.0 | 0.00 | 0.00 | 0.00 | 71 | 1015.0 |
| 20260905173118 | 85 | 126 | 8.0 | 14.0 | 0.00 | 0.00 | 0.00 | 71 | 1015.2 |
| 20260905172537 | 85 | 125 | 9.0 | 17.0 | 0.00 | 0.00 | 0.00 | 72 | 1015.2 |
| 20260905172035 | 86 | 135 | 9.0 | 17.0 | 0.00 | 0.00 | 0.00 | 71 | 1015.2 |
| 20260905171558 | 87 | 135 | 6.0 | 13.0 | 0.00 | 0.00 | 0.00 | 68 | 1015.2 |
| 20260905171035 | 87 | 137 | 6.0 | 13.0 | 0.00 | 0.00 | 0.00 | 67 | 1015.1 |
| 20260905170533 | 87 | 117 | 6.0 | 14.0 | 0.00 | 0.00 | 0.00 | 67 | 1015.2 |
| 20260905170108 | 89 | 116 | 6.0 | 14.0 | 0.00 | 0.00 | 0.00 | 63 | 1015.4 |
| 20260905165533 | 90 | 132 | 6.0 | 14.0 | 0.00 | 0.00 | 0.00 | 61 | 1015.3 |
| 20260905165034 | 90 | 122 | 4.0 | 12.0 | 0.00 | 0.00 | 0.00 | 63 | 1015.3 |
| 20260905164606 | 89 | 162 | 5.0 | 12.0 | 0.00 | 0.00 | 0.00 | 64 | 1015.3 |
| 20260905164032 | 88 | 126 | 4.0 | 12.0 | 0.00 | 0.00 | 0.00 | 66 | 1015.4 |
| 20260905163537 | 87 | 127 | 4.0 | 16.0 | 0.00 | 0.00 | 0.00 | 66 | 1015.4 |
| 20260905163103 | 88 | 105 | 7.0 | 16.0 | 0.00 | 0.00 | 0.00 | 65 | 1015.4 |
| 20260905162533 | 88 | 143 | 6.0 | 14.0 | 0.00 | 0.00 | 0.00 | 70 | 1015.5 |
| 20260905162033 | 87 | 155 | 6.0 | 14.0 | 0.00 | 0.00 | 0.00 | 70 | 1015.4 |
| 20260905161609 | 87 | 130 | 6.0 | 16.0 | 0.00 | 0.00 | 0.00 | 70 | 1015.4 |
| 20260905161034 | 86 | 89 | 8.0 | 16.0 | 0.00 | 0.00 | 0.00 | 73 | 1015.4 |
| 20260905160533 | 86 | 140 | 6.0 | 14.0 | 0.00 | 0.00 | 0.00 | 73 | 1015.4 |
| 20260905160056 | 88 | 147 | 8.0 | 14.0 | 0.00 | 0.00 | 0.00 | 69 | 1015.3 |
| 20260905155535 | 88 | 133 | 7.0 | 14.0 | 0.00 | 0.00 | 0.00 | 70 | 1015.3 |
| 20260905155033 | 87 | 145 | 6.0 | 15.0 | 0.00 | 0.00 | 0.00 | 73 | 1015.4 |
| 20260905154614 | 86 | 103 | 4.0 | 15.0 | 0.00 | 0.00 | 0.00 | 73 | 1015.4 |
| 20260905154034 | 86 | 116 | 5.0 | 15.0 | 0.00 | 0.00 | 0.00 | 72 | 1015.3 |
| 20260905153533 | 86 | 130 | 4.0 | 16.0 | 0.00 | 0.00 | 0.00 | 74 | 1015.3 |
| 20260905153057 | 85 | 135 | 7.0 | 16.0 | 0.00 | 0.00 | 0.00 | 74 | 1015.3 |
| 20260905152534 | 84 | 152 | 3.0 | 9.0 | 0.00 | 0.00 | 0.00 | 78 | 1015.2 |
| 20260905152034 | 83 | 199 | 4.0 | 12.0 | 0.00 | 0.00 | 0.00 | 78 | 1015.2 |
| 20260905151553 | 83 | 158 | 3.0 | 12.0 | 0.00 | 0.00 | 0.00 | 79 | 1015.3 |
| 20260905151033 | 83 | 131 | 6.0 | 12.0 | 0.00 | 0.00 | 0.00 | 80 | 1015.3 |
| 20260905150535 | 82 | 77 | 4.0 | 11.0 | 0.00 | 0.00 | 0.00 | 81 | 1015.3 |
| 20260905145530 | 83 | 155 | 6.0 | 11.0 | 0.00 | 0.00 | 0.00 | 80 | 1015.3 |
| 20260905145033 | 82 | 134 | 5.0 | 11.0 | 0.00 | 0.00 | 0.00 | 80 | 1015.3 |
| 20260905144555 | 83 | 133 | 5.0 | 12.0 | 0.00 | 0.00 | 0.00 | 80 | 1015.2 |
| 20260905144034 | 83 | 106 | 6.0 | 12.0 | 0.00 | 0.00 | 0.00 | 80 | 1015.3 |
| 20260905143532 | 82 | 155 | 4.0 | 10.0 | 0.00 | 0.00 | 0.00 | 81 | 1015.2 |
| 20260905143103 | 82 | 180 | 4.0 | 11.0 | 0.00 | 0.00 | 0.00 | 81 | 1015.2 |
| 20260905142531 | 82 | 124 | 6.0 | 11.0 | 0.00 | 0.00 | 0.00 | 82 | 1015.2 |
| 20260905142035 | 82 | 123 | 3.0 | 10.0 | 0.00 | 0.00 | 0.00 | 82 | 1015.2 |
| 20260905141555 | 81 | 137 | 5.0 | 11.0 | 0.00 | 0.00 | 0.00 | 83 | 1015.1 |
| 20260905141031 | 81 | 151 | 4.0 | 11.0 | 0.00 | 0.00 | 0.00 | 83 | 1015.1 |
| 20260905140535 | 81 | 150 | 5.0 | 8.0 | 0.00 | 0.00 | 0.00 | 84 | 1015.1 |
| 20260905140059 | 81 | 143 | 4.0 | 8.0 | 0.00 | 0.00 | 0.00 | 85 | 1015.1 |
| 20260905135535 | 80 | 118 | 1.0 | 8.0 | 0.00 | 0.00 | 0.00 | 87 | 1015.1 |
| 20260905135034 | 79 | 154 | 3.0 | 8.0 | 0.00 | 0.00 | 0.00 | 89 | 1015.1 |
| 20260905134557 | 78 | 133 | 3.0 | 7.0 | 0.00 | 0.00 | 0.00 | 90 | 1015.0 |
| 20260905134034 | 78 | 124 | 2.0 | 7.0 | 0.00 | 0.00 | 0.00 | 90 | 1015.0 |
| 20260905133530 | 78 | 111 | 4.0 | 7.0 | 0.00 | 0.00 | 0.00 | 90 | 1014.9 |
| 20260905133105 | 77 | 100 | 2.0 | 8.0 | 0.00 | 0.00 | 0.00 | 90 | 1015.0 |
| 20260905132534 | 77 | 132 | 4.0 | 8.0 | 0.00 | 0.00 | 0.00 | 90 | 1014.9 |
| 20260905132034 | 77 | 140 | 1.0 | 5.0 | 0.00 | 0.00 | 0.00 | 90 | 1014.9 |
| 20260905131600 | 76 | 133 | 2.0 | 4.0 | 0.00 | 0.00 | 0.00 | 90 | 1014.8 |
| 20260905131033 | 76 | 0 | 0.0 | 0.0 | 0.00 | 0.00 | 0.00 | 89 | 1014.7 |
| 20260905130535 | 76 | 0 | 0.0 | 0.0 | 0.00 | 0.00 | 0.00 | 89 | 1014.7 |
| 20260905130055 | 75 | 0 | 0.0 | 0.0 | 0.00 | 0.00 | 0.00 | 88 | 1014.7 |
| 20260905125536 | 75 | 0 | 0.0 | 0.0 | 0.00 | 0.00 | 0.00 | 88 | 1014.6 |
| 20260905125034 | 75 | 0 | 0.0 | 0.0 | 0.00 | 0.00 | 0.00 | 88 | 1014.5 |
| 20260905124555 | 75 | 0 | 0.0 | 0.0 | 0.00 | 0.00 | 0.00 | 87 | 1014.4 |
| 20260905124036 | 75 | 0 | 0.0 | 0.0 | 0.00 | 0.00 | 0.00 | 87 | 1014.4 |
| 20260905123533 | 75 | 0 | 0.0 | 0.0 | 0.00 | 0.00 | 0.00 | 87 | 1014.3 |
| 20260905123109 | 75 | 0 | 0.0 | 0.0 | 0.00 | 0.00 | 0.00 | 87 | 1014.3 |
| 20260905122537 | 75 | 0 | 0.0 | 0.0 | 0.00 | 0.00 | 0.00 | 87 | 1014.2 |
| 20260905122033 | 75 | 0 | 0.0 | 0.0 | 0.00 | 0.00 | 0.00 | 87 | 1014.2 |
| 20260905121558 | 76 | 0 | 0.0 | 0.0 | 0.00 | 0.00 | 0.00 | 86 | 1014.2 |
| 20260905121035 | 76 | 0 | 0.0 | 0.0 | 0.00 | 0.00 | 0.00 | 86 | 1014.2 |
| 20260905120534 | 76 | 0 | 0.0 | 0.0 | 0.00 | 0.00 | 0.00 | 86 | 1014.2 |
| 20260905120059 | 76 | 0 | 0.0 | 0.0 | 0.00 | 0.00 | 0.00 | 86 | 1014.2 |
| 20260905115533 | 76 | 0 | 0.0 | 0.0 | 0.00 | 0.00 | 0.00 | 86 | 1014.1 |
| 20260905115033 | 76 | 0 | 0.0 | 0.0 | 0.00 | 0.00 | 0.00 | 86 | 1014.1 |
| 20260905114601 | 76 | 0 | 0.0 | 0.0 | 0.00 | 0.00 | 0.00 | 86 | 1014.0 |
| 20260905114033 | 76 | 0 | 0.0 | 0.0 | 0.00 | 0.00 | 0.00 | 86 | 1013.9 |
| 20260905113533 | 76 | 0 | 0.0 | 0.0 | 0.00 | 0.00 | 0.00 | 86 | 1013.9 |
| 20260905113101 | 76 | 0 | 0.0 | 0.0 | 0.00 | 0.00 | 0.00 | 85 | 1013.9 |
| 20260905112531 | 76 | 0 | 0.0 | 0.0 | 0.00 | 0.00 | 0.00 | 85 | 1013.8 |
| 20260905112036 | 76 | 0 | 0.0 | 0.0 | 0.00 | 0.00 | 0.00 | 85 | 1013.8 |
| 20260905111558 | 76 | 0 | 0.0 | 0.0 | 0.00 | 0.00 | 0.00 | 85 | 1013.7 |
| 20260905111034 | 76 | 0 | 0.0 | 0.0 | 0.00 | 0.00 | 0.00 | 85 | 1013.6 |
| 20260905110532 | 76 | 0 | 0.0 | 0.0 | 0.00 | 0.00 | 0.00 | 85 | 1013.6 |
| 20260905110055 | 76 | 0 | 0.0 | 0.0 | 0.00 | 0.00 | 0.00 | 85 | 1013.7 |
| 20260905105533 | 77 | 0 | 0.0 | 0.0 | 0.00 | 0.00 | 0.00 | 85 | 1013.8 |
| 20260905105033 | 77 | 0 | 0.0 | 0.0 | 0.00 | 0.00 | 0.00 | 85 | 1013.8 |
| 20260905104553 | 77 | 0 | 0.0 | 0.0 | 0.00 | 0.00 | 0.00 | 85 | 1013.7 |
| 20260905104031 | 77 | 0 | 0.0 | 0.0 | 0.00 | 0.00 | 0.00 | 85 | 1013.7 |
| 20260905103533 | 77 | 0 | 0.0 | 0.0 | 0.00 | 0.00 | 0.00 | 85 | 1013.7 |
| 20260905103104 | 77 | 0 | 0.0 | 2.0 | 0.00 | 0.00 | 0.00 | 85 | 1013.7 |
| 20260905102533 | 77 | 0 | 0.0 | 2.0 | 0.00 | 0.00 | 0.00 | 85 | 1013.6 |
| 20260905102034 | 77 | 0 | 0.0 | 2.0 | 0.00 | 0.00 | 0.00 | 84 | 1013.7 |
| 20260905101601 | 77 | 105 | 1.0 | 2.0 | 0.00 | 0.00 | 0.00 | 84 | 1013.8 |
| 20260905101035 | 77 | 0 | 0.0 | 1.0 | 0.00 | 0.00 | 0.00 | 84 | 1014.0 |
| 20260905100534 | 77 | 0 | 0.0 | 0.0 | 0.00 | 0.00 | 0.00 | 83 | 1013.9 |
| 20260905100122 | 77 | 0 | 0.0 | 0.0 | 0.00 | 0.00 | 0.00 | 83 | 1013.8 |
| 20260905095533 | 77 | 0 | 0.0 | 0.0 | 0.00 | 0.00 | 0.00 | 83 | 1013.7 |
| 20260905095033 | 77 | 0 | 0.0 | 1.0 | 0.00 | 0.00 | 0.00 | 83 | 1013.7 |
| 20260905094556 | 78 | 0 | 0.0 | 1.0 | 0.00 | 0.00 | 0.00 | 84 | 1013.7 |
| 20260905094033 | 78 | 0 | 0.0 | 0.0 | 0.00 | 0.00 | 0.00 | 84 | 1013.7 |
| 20260905093532 | 78 | 0 | 0.0 | 1.0 | 0.00 | 0.00 | 0.00 | 84 | 1013.8 |
| 20260905093056 | 78 | 0 | 0.0 | 2.0 | 0.00 | 0.00 | 0.00 | 83 | 1013.9 |
| 20260905092535 | 78 | 0 | 0.0 | 2.0 | 0.00 | 0.00 | 0.00 | 83 | 1013.7 |
| 20260905092034 | 78 | 0 | 0.0 | 2.0 | 0.00 | 0.00 | 0.00 | 83 | 1013.6 |
| 20260905091558 | 78 | 105 | 1.0 | 2.0 | 0.00 | 0.00 | 0.00 | 83 | 1013.5 |
| 20260905091031 | 78 | 105 | 0.0 | 2.0 | 0.00 | 0.00 | 0.00 | 83 | 1013.6 |
| 20260905090535 | 78 | 105 | 0.0 | 2.0 | 0.00 | 0.00 | 0.00 | 83 | 1013.6 |
| 20260905090059 | 78 | 105 | 1.0 | 2.0 | 0.00 | 0.00 | 0.00 | 83 | 1013.7 |
| 20260905085534 | 78 | 0 | 0.0 | 3.0 | 0.00 | 0.00 | 0.00 | 83 | 1013.7 |
| 20260905085034 | 78 | 0 | 1.0 | 3.0 | 0.00 | 0.00 | 0.00 | 83 | 1013.7 |
| 20260905084601 | 78 | 105 | 0.0 | 3.0 | 0.00 | 0.00 | 0.00 | 83 | 1013.7 |
| 20260905084034 | 78 | 105 | 1.0 | 3.0 | 0.00 | 0.00 | 0.00 | 83 | 1013.8 |
| 20260905083534 | 78 | 105 | 1.0 | 4.0 | 0.00 | 0.00 | 0.00 | 83 | 1013.7 |
| 20260905083109 | 78 | 105 | 2.0 | 5.0 | 0.00 | 0.00 | 0.00 | 82 | 1013.6 |
| 20260905082533 | 79 | 107 | 2.0 | 7.0 | 0.00 | 0.00 | 0.00 | 82 | 1013.7 |
| 20260905082037 | 79 | 133 | 3.0 | 7.0 | 0.00 | 0.00 | 0.00 | 82 | 1013.8 |
| 20260905081553 | 79 | 111 | 3.0 | 8.0 | 0.00 | 0.00 | 0.00 | 81 | 1013.8 |
| 20260905081033 | 79 | 104 | 3.0 | 8.0 | 0.00 | 0.00 | 0.00 | 81 | 1013.7 |
| 20260905080533 | 79 | 87 | 3.0 | 7.0 | 0.00 | 0.00 | 0.00 | 80 | 1013.7 |
| 20260905080059 | 79 | 111 | 2.0 | 6.0 | 0.00 | 0.00 | 0.00 | 80 | 1013.7 |
| 20260905075533 | 79 | 120 | 2.0 | 6.0 | 0.00 | 0.00 | 0.00 | 80 | 1013.8 |
| 20260905075034 | 79 | 130 | 3.0 | 7.0 | 0.00 | 0.00 | 0.00 | 80 | 1013.8 |
| 20260905074559 | 79 | 130 | 2.0 | 7.0 | 0.00 | 0.00 | 0.00 | 79 | 1014.0 |
| 20260905074032 | 80 | 114 | 3.0 | 7.0 | 0.00 | 0.00 | 0.00 | 79 | 1013.9 |
| 20260905073533 | 80 | 134 | 2.0 | 7.0 | 0.00 | 0.00 | 0.00 | 79 | 1013.9 |
| 20260905073059 | 80 | 111 | 2.0 | 8.0 | 0.00 | 0.00 | 0.00 | 79 | 1013.8 |
| 20260905072535 | 80 | 130 | 3.0 | 8.0 | 0.00 | 0.00 | 0.00 | 79 | 1013.9 |
| 20260905072033 | 80 | 122 | 2.0 | 7.0 | 0.00 | 0.00 | 0.00 | 78 | 1014.1 |
| 20260905071555 | 80 | 112 | 3.0 | 10.0 | 0.00 | 0.00 | 0.00 | 78 | 1014.1 |
| 20260905071033 | 80 | 151 | 4.0 | 10.0 | 0.00 | 0.00 | 0.00 | 78 | 1014.1 |
| 20260905070533 | 80 | 125 | 5.0 | 10.0 | 0.00 | 0.00 | 0.00 | 78 | 1014.1 |
| 20260905070054 | 80 | 111 | 5.0 | 10.0 | 0.00 | 0.00 | 0.00 | 78 | 1014.1 |
| 20260905065532 | 80 | 120 | 4.0 | 11.0 | 0.00 | 0.00 | 0.00 | 77 | 1014.0 |
| 20260905065033 | 80 | 106 | 4.0 | 11.0 | 0.00 | 0.00 | 0.00 | 77 | 1014.2 |
| 20260905064617 | 81 | 123 | 4.0 | 9.0 | 0.00 | 0.00 | 0.00 | 76 | 1014.3 |
| 20260905064033 | 81 | 177 | 3.0 | 11.0 | 0.00 | 0.00 | 0.00 | 76 | 1014.4 |
| 20260905063532 | 81 | 147 | 6.0 | 11.0 | 0.00 | 0.00 | 0.00 | 75 | 1014.3 |
| 20260905063055 | 81 | 147 | 4.0 | 10.0 | 0.00 | 0.00 | 0.00 | 75 | 1014.3 |
| 20260905062533 | 81 | 87 | 6.0 | 11.0 | 0.00 | 0.00 | 0.00 | 74 | 1014.1 |
| 20260905062033 | 81 | 127 | 6.0 | 12.0 | 0.00 | 0.00 | 0.00 | 74 | 1014.3 |
| 20260905061558 | 81 | 135 | 5.0 | 12.0 | 0.00 | 0.00 | 0.00 | 74 | 1014.3 |
| 20260905061033 | 81 | 158 | 7.0 | 13.0 | 0.00 | 0.00 | 0.00 | 73 | 1014.2 |
| 20260905060533 | 82 | 135 | 6.0 | 13.0 | 0.00 | 0.00 | 0.00 | 73 | 1014.2 |
| 20260905060050 | 82 | 145 | 6.0 | 15.0 | 0.00 | 0.00 | 0.00 | 72 | 1014.2 |
| 20260905055532 | 82 | 128 | 7.0 | 15.0 | 0.00 | 0.00 | 0.00 | 72 | 1014.2 |
| 20260905055033 | 82 | 132 | 6.0 | 14.0 | 0.00 | 0.00 | 0.00 | 71 | 1014.2 |
| 20260905054708 | 82 | 157 | 4.0 | 11.0 | 0.00 | 0.00 | 0.00 | 71 | 1014.1 |
| 20260905054032 | 82 | 137 | 6.0 | 12.0 | 0.00 | 0.00 | 0.00 | 70 | 1014.1 |
| 20260905053536 | 82 | 166 | 7.0 | 12.0 | 0.00 | 0.00 | 0.00 | 70 | 1014.1 |
| 20260905053057 | 82 | 144 | 5.0 | 12.0 | 0.00 | 0.00 | 0.00 | 70 | 1014.2 |
| 20260905052533 | 82 | 178 | 5.0 | 11.0 | 0.00 | 0.00 | 0.00 | 70 | 1014.2 |
| 20260905052034 | 82 | 162 | 3.0 | 8.0 | 0.00 | 0.00 | 0.00 | 70 | 1014.1 |
| 20260905051554 | 82 | 149 | 4.0 | 9.0 | 0.00 | 0.00 | 0.00 | 70 | 1014.2 |
| 20260905051031 | 83 | 135 | 5.0 | 11.0 | 0.00 | 0.00 | 0.00 | 69 | 1014.2 |
| 20260905050534 | 83 | 155 | 5.0 | 11.0 | 0.00 | 0.00 | 0.00 | 69 | 1014.2 |
| 20260905050051 | 83 | 154 | 4.0 | 11.0 | 0.00 | 0.00 | 0.00 | 68 | 1014.2 |
| 20260905045536 | 83 | 127 | 5.0 | 11.0 | 0.00 | 0.00 | 0.00 | 68 | 1014.3 |
| 20260905045033 | 83 | 114 | 4.0 | 15.0 | 0.00 | 0.00 | 0.00 | 68 | 1014.3 |
| 20260905044608 | 83 | 120 | 6.0 | 15.0 | 0.00 | 0.00 | 0.00 | 67 | 1014.3 |
| 20260905044032 | 83 | 160 | 8.0 | 14.0 | 0.00 | 0.00 | 0.00 | 67 | 1014.3 |
| 20260905043533 | 83 | 127 | 6.0 | 14.0 | 0.00 | 0.00 | 0.00 | 66 | 1014.2 |
| 20260905043102 | 83 | 146 | 5.0 | 14.0 | 0.00 | 0.00 | 0.00 | 66 | 1014.2 |
| 20260905042535 | 83 | 130 | 7.0 | 14.0 | 0.00 | 0.00 | 0.00 | 66 | 1014.3 |
| 20260905042033 | 83 | 152 | 8.0 | 13.0 | 0.00 | 0.00 | 0.00 | 65 | 1014.3 |
| 20260905041557 | 83 | 150 | 4.0 | 13.0 | 0.00 | 0.00 | 0.00 | 65 | 1014.2 |
| 20260905041034 | 83 | 165 | 7.0 | 12.0 | 0.00 | 0.00 | 0.00 | 65 | 1014.1 |
| 20260905040537 | 83 | 157 | 5.0 | 11.0 | 0.00 | 0.00 | 0.00 | 66 | 1014.1 |
| 20260905040110 | 83 | 141 | 5.0 | 13.0 | 0.00 | 0.00 | 0.00 | 66 | 1014.0 |
| 20260905035533 | 83 | 132 | 5.0 | 13.0 | 0.00 | 0.00 | 0.00 | 66 | 1014.1 |
| 20260905035033 | 83 | 128 | 7.0 | 14.0 | 0.00 | 0.00 | 0.00 | 66 | 1014.1 |
| 20260905034607 | 83 | 111 | 5.0 | 14.0 | 0.00 | 0.00 | 0.00 | 66 | 1014.1 |
| 20260905034032 | 83 | 106 | 8.0 | 12.0 | 0.00 | 0.00 | 0.00 | 66 | 1014.1 |
| 20260905033532 | 83 | 133 | 6.0 | 12.0 | 0.00 | 0.00 | 0.00 | 67 | 1014.0 |
| 20260905033056 | 83 | 121 | 6.0 | 14.0 | 0.00 | 0.00 | 0.00 | 67 | 1013.9 |
| 20260905032536 | 82 | 79 | 5.0 | 14.0 | 0.00 | 0.00 | 0.00 | 67 | 1013.9 |
| 20260905032036 | 82 | 102 | 6.0 | 14.0 | 0.00 | 0.00 | 0.00 | 67 | 1013.8 |
| 20260905031556 | 82 | 158 | 7.0 | 14.0 | 0.00 | 0.00 | 0.00 | 68 | 1013.8 |
| 20260905031032 | 82 | 87 | 6.0 | 14.0 | 0.00 | 0.00 | 0.00 | 68 | 1013.6 |
| 20260905030531 | 82 | 113 | 6.0 | 12.0 | 0.00 | 0.00 | 0.00 | 69 | 1013.7 |
| 20260905030059 | 81 | 115 | 6.0 | 10.0 | 0.00 | 0.00 | 0.00 | 69 | 1013.6 |
| 20260905025533 | 81 | 92 | 4.0 | 12.0 | 0.00 | 0.00 | 0.00 | 69 | 1013.6 |
| 20260905025033 | 81 | 97 | 5.0 | 12.0 | 0.00 | 0.00 | 0.00 | 69 | 1013.6 |
| 20260905024602 | 81 | 94 | 4.0 | 9.0 | 0.00 | 0.00 | 0.00 | 69 | 1013.4 |
| 20260905024033 | 81 | 99 | 4.0 | 11.0 | 0.00 | 0.00 | 0.00 | 69 | 1013.3 |
| 20260905023532 | 82 | 100 | 4.0 | 11.0 | 0.00 | 0.00 | 0.00 | 69 | 1013.3 |
| 20260905023057 | 82 | 91 | 3.0 | 7.0 | 0.00 | 0.00 | 0.00 | 68 | 1013.1 |
| 20260905022534 | 82 | 103 | 3.0 | 7.0 | 0.00 | 0.00 | 0.00 | 68 | 1013.1 |
| 20260905022033 | 83 | 80 | 2.0 | 4.0 | 0.00 | 0.00 | 0.00 | 68 | 1013.0 |
| 20260905021557 | 83 | 97 | 1.0 | 3.0 | 0.00 | 0.00 | 0.00 | 67 | 1012.9 |
| 20260905021033 | 83 | 97 | 2.0 | 3.0 | 0.00 | 0.00 | 0.00 | 66 | 1012.8 |
| 20260905020534 | 84 | 60 | 0.0 | 6.0 | 0.00 | 0.00 | 0.00 | 65 | 1012.8 |
| 20260905020058 | 84 | 0 | 1.0 | 6.0 | 0.00 | 0.00 | 0.00 | 65 | 1012.8 |
| 20260905015533 | 84 | 36 | 3.0 | 6.0 | 0.00 | 0.00 | 0.00 | 65 | 1012.9 |
| 20260905015035 | 85 | 54 | 3.0 | 6.0 | 0.00 | 0.00 | 0.00 | 64 | 1012.8 |
| 20260905014600 | 85 | 50 | 3.0 | 6.0 | 0.00 | 0.00 | 0.00 | 64 | 1012.8 |
| 20260905014035 | 85 | 54 | 3.0 | 7.0 | 0.00 | 0.00 | 0.00 | 64 | 1012.6 |
| 20260905013532 | 85 | 61 | 3.0 | 7.0 | 0.00 | 0.00 | 0.00 | 63 | 1012.6 |
| 20260905013102 | 86 | 75 | 3.0 | 7.0 | 0.00 | 0.00 | 0.00 | 63 | 1012.5 |
| 20260905012537 | 86 | 54 | 3.0 | 7.0 | 0.00 | 0.00 | 0.00 | 63 | 1012.5 |
| 20260905012034 | 86 | 46 | 3.0 | 6.0 | 0.00 | 0.00 | 0.00 | 63 | 1012.5 |
| 20260905011557 | 86 | 76 | 2.0 | 7.0 | 0.00 | 0.00 | 0.00 | 62 | 1012.5 |
| 20260905011032 | 86 | 58 | 2.0 | 7.0 | 0.00 | 0.00 | 0.00 | 62 | 1012.5 |
| 20260905010534 | 87 | 37 | 4.0 | 7.0 | 0.00 | 0.00 | 0.00 | 62 | 1012.6 |
| 20260905010104 | 87 | 66 | 2.0 | 7.0 | 0.00 | 0.00 | 0.00 | 62 | 1012.5 |
| 20260905005535 | 87 | 62 | 3.0 | 8.0 | 0.00 | 0.00 | 0.00 | 61 | 1012.5 |
| 20260905005035 | 87 | 50 | 4.0 | 8.0 | 0.00 | 0.00 | 0.00 | 61 | 1012.5 |
| 20260905004550 | 87 | 80 | 4.0 | 9.0 | 0.00 | 0.00 | 0.00 | 61 | 1012.4 |
| 20260905004034 | 87 | 62 | 4.0 | 9.0 | 0.00 | 0.00 | 0.00 | 60 | 1012.3 |
| 20260905003535 | 88 | 81 | 5.0 | 9.0 | 0.00 | 0.00 | 0.00 | 60 | 1012.4 |
| 20260905003059 | 88 | 48 | 4.0 | 10.0 | 0.00 | 0.00 | 0.00 | 60 | 1012.4 |
| 20260905002533 | 88 | 64 | 6.0 | 10.0 | 0.00 | 0.00 | 0.00 | 60 | 1012.3 |
| 20260905002032 | 88 | 87 | 4.0 | 12.0 | 0.00 | 0.00 | 0.00 | 60 | 1012.3 |
| 20260905001554 | 88 | 91 | 5.0 | 12.0 | 0.00 | 0.00 | 0.00 | 60 | 1012.4 |
| 20260905001032 | 88 | 57 | 3.0 | 10.0 | 0.00 | 0.00 | 0.00 | 60 | 1012.4 |
| 20260905000533 | 88 | 78 | 5.0 | 12.0 | 0.00 | 0.00 | 0.00 | 60 | 1012.3 |
| 20260905000051 | 88 | 83 | 4.0 | 12.0 | 0.00 | 0.00 | 0.00 | 58 | 1012.4 |
| 20260904235534 | 88 | 95 | 7.0 | 12.0 | 0.00 | 0.00 | 0.00 | 57 | 1012.4 |
| 20260904235033 | 88 | 72 | 7.0 | 11.0 | 0.00 | 0.00 | 0.00 | 57 | 1012.4 |